Regional Weather Roundup
Issued by NWS

Home | Current Version | Previous Version | Text Only | Print | Product List | Glossary Off
Versions: 1 2 3 4 5 6 7 8 9 10 11 12 13 14 15 16 17 18 19 20 21 22 23 24 25 26 27 28 29 30 31 32 33 34 35 36 37 38 39 40 41 42 43 44 45 46 47 48 49 50

000
ASUS43 KBIS 220810
RWRND
NORTH DAKOTA REGIONAL WEATHER ROUNDUP
NATIONAL WEATHER SERVICE EASTERN NORTH DAKOTA/GRAND FORKS ND
300 AM CDT SUN APR 22 2018

  NOTE: "FAIR" INDICATES FEW OR NO CLOUDS BELOW 12,000 FEET WITH NO
  SIGNIFICANT WEATHER AND/OR OBSTRUCTIONS TO VISIBILITY.

NDZ001>003-009>011-017-220900-
...NORTHWEST NORTH DAKOTA...

CITY           SKY/WX    TMP DP  RH WIND       PRES   REMARKS
WILLISTON      FAIR      41  33  73 NW9       30.05S
MINOT          FAIR      44  36  73 S12G21    30.06R
MINOT AFB      NOT AVBL
$$

NDZ018>021-031>035-040>046-220900-
...SOUTHWEST NORTH DAKOTA...

CITY           SKY/WX    TMP DP  RH WIND       PRES   REMARKS
BISMARCK       FAIR      44  35  70 S10       30.17S
DICKINSON      FAIR      39  36  89 S15       30.07R WCI  31
GARRISON         N/A     39  35  86 SW7       30.12R WCI  34
HETTINGER      FAIR      38  34  85 SE12      30.11F WCI  30
$$

NDZ004>008-012>016-024-026-027-054-220900-
...NORTHEAST NORTH DAKOTA...

CITY           SKY/WX    TMP DP  RH WIND       PRES   REMARKS
GRAND FORKS    FAIR      39  38  96 S12       30.23S WCI  32
GRAND FORKS AF FAIR      39  37  90 S9        30.22S WCI  33
DEVILS LAKE    FAIR      43  32  65 S15       30.17F
$$

NDZ022-023-025-028>030-036>039-047>053-220900-
...SOUTHEAST NORTH DAKOTA...

CITY           SKY/WX    TMP DP  RH WIND       PRES   REMARKS
JAMESTOWN      FAIR      35  31  85 S8        30.22S WCI  29
FARGO          FAIR      41  35  79 S10       30.27S
WAHPETON       FAIR      36  32  87 SE5       30.30R WCI  32
$$




USA.gov is the U.S. government's official web portal to all federal, state and local government web resources and services.